Location: Veyrier
(46.1830°N, 6.2000°E)
Time: 03:31:20
(UTC+02:00)

Daily predictions for brighter satellites

Satellite Brightness Start Highest point End
(mag) Time Altitude Azimuth Time Altitude Azimuth Time Altitude Azimuth
ATLAS 2AS CENTAUR R/B 4.0 02:49:00 43° NE 02:49:00 43° NE 02:54:05 10° NE
SL-16 R/B 4.0 03:09:41 32° NE 03:09:41 32° NE 03:13:59 10° N
CENTAUR R/B 4.4 03:31:39 10° NNW 03:38:17 33° NNE 03:45:28 10° E
Lacrosse 5 4.2 03:47:19 19° E 03:47:19 19° E 03:49:03 10° ENE
Okean O Rocket 4.4 03:56:20 10° ENE 03:58:11 12° E 03:58:41 12° E
CZ-2D R/B 3.4 03:55:57 10° NNE 03:59:26 36° NE 03:59:26 36° NE
Cosmos 2219 4.4 04:08:01 35° N 04:08:01 35° N 04:11:19 10° NNE
SL-16 R/B 3.7 04:01:23 10° NNW 04:06:32 34° NE 04:11:38 10° ESE
Lacrosse 5 rocket 3.6 04:18:22 24° NNE 04:18:22 24° NNE 04:20:27 10° NE
NOSS 3-4 (A) 3.9 04:17:05 59° ESE 04:17:05 59° ESE 04:23:09 10° NE
NOSS 3-4 (C) 3.9 04:17:10 58° ESE 04:17:10 58° ESE 04:23:15 10° NE
Resurs 1-4 Rocket 3.0 04:12:08 10° NNE 04:16:03 47° NE 04:16:03 47° NE
Cosmos 2227 Rocket 2.9 04:20:10 49° E 04:20:10 49° E 04:25:07 10° NE
Cosmos 2297 Rocket 3.0 04:28:11 43° ESE 04:28:31 44° ESE 04:33:51 10° NE
ATLAS 2AS CENTAUR R/B 4.0 04:36:27 31° NW 04:38:01 34° NNW 04:45:17 10° NE
BREEZE M DEB (TANK) 3.8 04:43:09 38° E 04:43:09 38° E 04:47:23 10° ENE
CZ-3A R/B 3.1 04:41:42 51° N 04:42:21 56° NNE 04:48:45 10° ESE
ARGOS Delta rocket 4.5 04:38:33 10° N 04:42:16 53° N 04:42:16 53° N
ARIANE 5 R/B 3.4 04:39:53 10° N 04:43:12 39° N 04:43:12 39° N
CZ-2C R/B 4.4 04:48:55 26° SE 04:51:18 53° ENE 04:55:51 10° N
SL-16 R/B 3.7 04:54:47 28° NW 04:54:47 28° NW 04:57:54 10° NNW
Cosmos 1605 Rocket 3.9 04:45:53 10° NNW 04:51:41 70° WNW 04:51:41 70° WNW
UNKNOWN OBJECT B 4.5 04:52:30 10° N 04:54:31 29° N 04:54:31 29° N
Cosmos 2058 Rocket 4.3 04:52:50 10° N 04:56:59 40° ENE 05:01:06 10° SSE
Cosmos 2082 3.5 05:01:33 78° WSW 05:01:55 84° WNW 05:07:35 10° NNE
Cosmos 1025 Rocket 3.2 05:05:39 68° NE 05:05:39 68° NE 05:09:32 10° NNE
Cosmos 292 Rocket 4.4 05:00:49 10° NNW 05:08:42 24° SSE 05:10:35 10° SSE
ADEOS II 4.0 05:05:02 10° NE 05:09:32 28° E 05:14:01 10° SSE
Cosmos 1346 Rocket 3.2 05:11:14 60° ESE 05:11:21 60° E 05:15:20 10° NNE
Tiangong 1 3.5 05:14:59 19° ESE 05:14:59 19° ESE 05:16:02 10° ESE
MOZ.5/SAFIR/RUBIN 5/SL-8 3.8 05:19:40 60° WNW 05:19:40 60° WNW 05:23:53 10° NNW
RESURS DK-1 2.6 05:20:19 58° NNW 05:20:19 58° NNW 05:23:54 10° NNE
Cosmos 2344 4.0 05:17:34 39° W 05:20:25 57° NW 05:29:38 10° NE
Meteor 1-15 Rocket 4.3 05:16:07 10° N 05:21:43 78° ENE 05:27:21 10° SSE
USA 215 3.8 05:17:38 10° SSE 05:22:57 37° SW 05:22:57 37° SW
ADEOS Rocket 3.8 05:16:58 10° NNE 05:24:01 59° E 05:30:19 10° S
ATLAS 5 CENTAUR R/B 4.1 05:28:06 18° S 05:28:06 18° S 05:29:50 10° S
Cosmos 1606 Rocket 3.9 05:22:25 10° NNW 05:25:51 49° NW 05:25:51 49° NW
Cosmos 724 4.3 05:20:37 10° NW 05:26:46 63° WSW 05:32:53 10° SSE
Lacrosse 5 2.0 05:26:31 52° WNW 05:27:20 59° NNW 05:32:22 10° NE
PSLV R/B 3.8 05:23:49 10° N 05:27:57 77° WNW 05:28:13 73° WSW
CZ-4B R/B 3.3 05:24:25 10° NNE 05:29:52 78° ESE 05:34:28 15° S
CENTAUR R/B 3.0 05:22:14 10° NW 05:30:00 88° NE 05:38:21 10° SE
Cosmos 2298 Rocket 4.1 05:28:17 27° S 05:31:13 76° ESE 05:36:33 10° NNE
Cosmos 2100 Rocket 3.9 05:26:27 10° N 05:32:41 79° W 05:38:58 10° S
Cosmos 220 Rocket 4.5 05:33:26 41° NW 05:33:26 41° NW 05:37:03 10° N
Okean O Rocket 1.5 05:30:41 10° N 05:35:05 72° WNW 05:36:08 49° SW
Cosmos 1802 Rocket 3.9 05:30:10 10° N 05:36:22 89° ENE 05:42:30 10° S
Cosmos 1726 Rocket 3.5 05:32:21 10° NNW 05:36:41 58° W 05:37:15 53° SW
Cosmos 2061 Rocket 3.9 05:31:33 10° N 05:37:53 81° W 05:44:16 10° S
CZ-2D R/B 3.1 05:36:32 10° N 05:40:46 27° WNW 05:40:46 27° WNW
Meteor 1-19 Rocket 4.3 05:39:31 37° SW 05:41:18 51° WNW 05:46:45 10° N
Thor Agena Rocket 3.5 05:39:23 10° SSE 05:44:41 84° WSW 05:50:01 10° NNW
Cosmos 2150 Rocket 3.9 05:41:17 22° SSW 05:44:41 86° ESE 05:49:52 10° NNE
Meteor 2-4 Rocket 3.8 05:41:43 23° SSW 05:45:28 65° WNW 05:51:24 10° N
ASTRO F (AKARI) 4.2 05:44:03 10° SSE 05:47:13 84° ENE 05:50:33 10° NNW
Cosmos 1666 4.0 05:44:13 10° NNW 05:46:14 26° NW 05:46:14 26° NW
Cosmos 1174 3.2 05:47:35 38° NNW 05:48:36 75° NE 05:51:50 10° SE
Cosmos 1602 Rocket 4.4 05:45:53 10° S 05:50:11 51° E 05:54:27 10° NNE
SL-16 R/B 2.4 05:45:25 10° NW 05:50:47 44° WSW 05:56:07 10° S
IRS-1C Rocket 4.2 05:47:07 10° N 05:52:18 56° WNW 05:55:23 24° SW
PSLV R/B 3.7 05:48:16 10° NNE 05:52:37 73° ESE 05:56:53 10° S
Meteor 2-9 Rocket 4.4 05:47:59 10° NNW 05:53:27 51° W 05:59:01 10° SSW
Cosmos 1892 Rocket 3.7 05:51:43 32° SW 05:53:31 54° WNW 05:57:56 10° N
SOZ 4.2 05:54:20 47° NNW 05:54:49 61° NNE 05:56:59 10° ESE
NOSS 2-2 (C) 4.4 05:52:52 14° SSW 05:56:11 48° ESE 06:00:49 10° NE
Lacrosse 5 rocket 3.4 05:54:06 15° NW 05:56:27 21° N 05:59:49 10° NE
Resurs 1-4 Rocket 3.5 05:52:59 10° NNW 05:56:48 20° WNW 05:57:07 20° WNW
Meteor 1-23 Rocket 4.3 05:52:59 19° SSW 05:56:59 57° WNW 06:02:38 10° N
NOSS 2-2 (E) 4.2 05:54:08 17° SSW 05:57:18 55° ESE 06:02:09 10° NE
Cosmos 2228 3.0 05:54:34 10° NNW 05:58:56 62° W 06:03:14 10° S
Cosmos 1000 Rocket 4.5 05:56:48 10° SSW 06:03:05 66° W 06:09:24 10° N
Cosmos 2084 Rocket 4.0 06:00:04 10° NNW 06:03:51 52° NE 06:07:45 10° SE
Cosmos 2227 Rocket 3.1 06:02:01 24° W 06:03:57 30° NW 06:08:55 10° N
Cosmos 2016 Rocket 3.9 05:58:03 10° NNW 06:04:22 69° W 06:10:33 10° S
Meteor PRIRODA 3.9 06:03:41 10° NNE 06:07:25 71° E 06:11:07 10° S
Cosmos 1898 Rocket 3.6 06:03:51 19° SW 06:07:37 58° WNW 06:12:52 10° NNE
NOSS 3-4 (A) 4.3 06:04:33 22° W 06:07:58 37° NW 06:14:07 10° NNE
NOSS 3-4 (C) 4.3 06:04:38 22° W 06:08:04 38° NW 06:14:15 10° NNE
Cosmos 2098 Rocket 3.1 06:05:00 10° NNW 06:08:55 62° W 06:13:55 10° S
Cosmos 2173 Rocket 4.2 06:03:36 10° NNW 06:09:23 46° W 06:15:10 10° SSW
NOSS 8 (A) 4.3 06:08:02 26° SW 06:09:47 89° SE 06:13:26 10° NE
CZ-4B R/B 3.5 06:06:14 10° N 06:10:24 42° WNW 06:13:19 18° SW
Cosmos 2297 Rocket 3.0 06:10:02 23° W 06:12:41 34° NW 06:17:49 10° NNE
Cosmos 1812 Rocket 3.7 06:08:20 10° N 06:12:48 79° E 06:17:16 10° SSE
SL-08 R/B 4.4 06:07:41 10° NNW 06:13:54 69° W 06:20:10 10° S
Cosmos 1459 Rocket 4.3 06:08:19 10° NNW 06:14:15 42° W 06:20:06 10° SSW
DELTA 2 R/B (1) 4.3 06:13:01 20° WSW 06:16:30 43° S 06:21:44 10° ESE
Cosmos 1937 Rocket 3.5 06:11:58 10° SSW 06:17:10 66° WNW 06:22:27 10° NNE
Meteor 2-15 4.5 06:19:42 10° SSW 06:25:40 59° WNW 06:31:39 10° N
Okean 2 4.5 06:24:27 19° WSW 06:26:10 25° WNW 06:29:37 10° NNW
Cosmos 2123 Rocket 3.9 06:20:45 10° SSW 06:26:54 76° W 06:33:07 10° N
USA 129 0.9 06:26:42 10° S 06:28:27 59° WSW 06:29:13 24° NNW
Cosmos 1943 3.5 06:26:22 10° NNW 06:32:01 73° ENE 06:37:38 10° SSE
NOAA 6 4.5 06:27:59 10° NNE 06:33:11 67° ESE 06:38:20 10° S
Cosmos 2058 Rocket 4.3 06:31:32 10° NW 06:34:41 20° W 06:37:49 10° SW
Meteor 1-22 Rocket 4.4 06:29:38 10° N 06:35:09 76° ENE 06:40:52 10° SSE
Cosmos 1603 3.9 06:33:03 10° NW 06:38:32 48° WSW 06:43:57 10° S
Iridium 4 Rocket 4.1 06:37:44 10° SSE 06:42:21 53° E 06:46:39 10° NNE
Okean-O 3.0 06:39:18 10° N 06:43:31 43° WNW 06:47:42 10° SW
Cosmos 2263 Rocket 3.6 06:40:39 10° S 06:45:49 41° ESE 06:51:01 10° NE
COSMO-SKYMED 1 2.6 06:43:35 10° SSE 06:47:55 89° ENE 06:52:18 10° NNW
Tiangong 1 2.1 06:46:53 12° WSW 06:49:13 30° SSW 06:51:57 10° SE
ADEOS II 2.5 06:44:27 10° N 06:49:24 43° WNW 06:54:21 10° SW
Cosmos 1825 Rocket 3.8 06:45:39 10° S 06:50:01 74° E 06:54:24 10° NNE
SL-24 R/B 4.0 06:47:11 10° NNE 06:51:31 84° ESE 06:55:21 10° SSW
MOS 1 Rocket 3.6 06:52:26 10° N 06:57:06 52° WNW 07:02:03 10° SSW
Intercosmos 25 Rocket 3.7 06:54:30 10° NNW 06:58:00 50° W 07:03:02 10° S
SJ-6F 4.4 06:55:30 10° N 06:59:41 75° WNW 07:03:51 10° SSW
BREEZE-M DEB (TANK) 4.0 06:50:02 10° WNW 07:00:47 39° SW 07:04:23 10° SSE
AVUM R/B 3.2 07:00:25 10° NW 07:02:36 30° WSW 07:04:38 10° S
Cosmos 1626 Rocket 4.5 06:59:56 10° SW 07:03:41 28° WNW 07:07:26 10° NNW
Radarsat Rocket 4.2 06:57:09 10° NNE 07:03:59 87° WNW 07:10:03 10° SSW
SeaSat 1 3.0 07:00:36 10° SE 07:05:28 65° ENE 07:10:23 10° NNW
ADEOS Rocket 4.1 07:02:57 10° N 07:09:02 31° WNW 07:14:38 10° WSW
